Index of /20260508/WXO-DD/model_rdps/10km/06/017
Name Last modified Size Description
Parent Directory -
20260508T06Z_MSC_RDPS_AbsoluteVorticity_IsbL-0250_RLatLon0.09_PT017H.grib2 2026-05-08 08:43 602K
20260508T06Z_MSC_RDPS_AbsoluteVorticity_IsbL-0500_RLatLon0.09_PT017H.grib2 2026-05-08 08:43 560K
20260508T06Z_MSC_RDPS_AbsoluteVorticity_IsbL-0700_RLatLon0.09_PT017H.grib2 2026-05-08 08:43 635K
20260508T06Z_MSC_RDPS_AbsoluteVorticity_IsbL-0850_RLatLon0.09_PT017H.grib2 2026-05-08 08:43 790K
20260508T06Z_MSC_RDPS_AirTemp_AGL-120m_RLatLon0.09_PT017H.grib2 2026-05-08 08:43 376K
20260508T06Z_MSC_RDPS_AirTemp_AGL-2m_RLatLon0.09_PT017H.grib2 2026-05-08 08:43 629K
20260508T06Z_MSC_RDPS_AirTemp_AGL-40m_RLatLon0.09_PT017H.grib2 2026-05-08 08:43 386K
20260508T06Z_MSC_RDPS_AirTemp_AGL-80m_RLatLon0.09_PT017H.grib2 2026-05-08 08:43 380K
20260508T06Z_MSC_RDPS_AirTemp_IsbL-0001_RLatLon0.09_PT017H.grib2 2026-05-08 08:43 306K
20260508T06Z_MSC_RDPS_AirTemp_IsbL-0005_RLatLon0.09_PT017H.grib2 2026-05-08 08:43 372K
20260508T06Z_MSC_RDPS_AirTemp_IsbL-0010_RLatLon0.09_PT017H.grib2 2026-05-08 08:43 296K
20260508T06Z_MSC_RDPS_AirTemp_IsbL-0020_RLatLon0.09_PT017H.grib2 2026-05-08 08:43 312K
20260508T06Z_MSC_RDPS_AirTemp_IsbL-0030_RLatLon0.09_PT017H.grib2 2026-05-08 08:43 336K
20260508T06Z_MSC_RDPS_AirTemp_IsbL-0050_RLatLon0.09_PT017H.grib2 2026-05-08 08:43 310K
20260508T06Z_MSC_RDPS_AirTemp_IsbL-0100_RLatLon0.09_PT017H.grib2 2026-05-08 08:43 387K
20260508T06Z_MSC_RDPS_AirTemp_IsbL-0150_RLatLon0.09_PT017H.grib2 2026-05-08 08:43 412K
20260508T06Z_MSC_RDPS_AirTemp_IsbL-0175_RLatLon0.09_PT017H.grib2 2026-05-08 08:43 405K
20260508T06Z_MSC_RDPS_AirTemp_IsbL-0200_RLatLon0.09_PT017H.grib2 2026-05-08 08:43 412K
20260508T06Z_MSC_RDPS_AirTemp_IsbL-0225_RLatLon0.09_PT017H.grib2 2026-05-08 08:43 412K
20260508T06Z_MSC_RDPS_AirTemp_IsbL-0250_RLatLon0.09_PT017H.grib2 2026-05-08 08:43 418K
20260508T06Z_MSC_RDPS_AirTemp_IsbL-0275_RLatLon0.09_PT017H.grib2 2026-05-08 08:43 399K
20260508T06Z_MSC_RDPS_AirTemp_IsbL-0300_RLatLon0.09_PT017H.grib2 2026-05-08 08:43 429K
20260508T06Z_MSC_RDPS_AirTemp_IsbL-0350_RLatLon0.09_PT017H.grib2 2026-05-08 08:43 418K
20260508T06Z_MSC_RDPS_AirTemp_IsbL-0400_RLatLon0.09_PT017H.grib2 2026-05-08 08:43 421K
20260508T06Z_MSC_RDPS_AirTemp_IsbL-0450_RLatLon0.09_PT017H.grib2 2026-05-08 08:43 431K
20260508T06Z_MSC_RDPS_AirTemp_IsbL-0500_RLatLon0.09_PT017H.grib2 2026-05-08 08:43 410K
20260508T06Z_MSC_RDPS_AirTemp_IsbL-0550_RLatLon0.09_PT017H.grib2 2026-05-08 08:43 431K
20260508T06Z_MSC_RDPS_AirTemp_IsbL-0600_RLatLon0.09_PT017H.grib2 2026-05-08 08:43 451K
20260508T06Z_MSC_RDPS_AirTemp_IsbL-0650_RLatLon0.09_PT017H.grib2 2026-05-08 08:43 466K
20260508T06Z_MSC_RDPS_AirTemp_IsbL-0700_RLatLon0.09_PT017H.grib2 2026-05-08 08:43 494K
20260508T06Z_MSC_RDPS_AirTemp_IsbL-0750_RLatLon0.09_PT017H.grib2 2026-05-08 08:43 418K
20260508T06Z_MSC_RDPS_AirTemp_IsbL-0800_RLatLon0.09_PT017H.grib2 2026-05-08 08:43 460K
20260508T06Z_MSC_RDPS_AirTemp_IsbL-0850_RLatLon0.09_PT017H.grib2 2026-05-08 08:43 501K
20260508T06Z_MSC_RDPS_AirTemp_IsbL-0875_RLatLon0.09_PT017H.grib2 2026-05-08 08:43 517K
20260508T06Z_MSC_RDPS_AirTemp_IsbL-0900_RLatLon0.09_PT017H.grib2 2026-05-08 08:43 524K
20260508T06Z_MSC_RDPS_AirTemp_IsbL-0925_RLatLon0.09_PT017H.grib2 2026-05-08 08:43 526K
20260508T06Z_MSC_RDPS_AirTemp_IsbL-0950_RLatLon0.09_PT017H.grib2 2026-05-08 08:43 527K
20260508T06Z_MSC_RDPS_AirTemp_IsbL-0970_RLatLon0.09_PT017H.grib2 2026-05-08 08:43 521K
20260508T06Z_MSC_RDPS_AirTemp_IsbL-0985_RLatLon0.09_PT017H.grib2 2026-05-08 08:43 520K
20260508T06Z_MSC_RDPS_AirTemp_IsbL-1000_RLatLon0.09_PT017H.grib2 2026-05-08 08:43 500K
20260508T06Z_MSC_RDPS_AirTemp_IsbL-1015_RLatLon0.09_PT017H.grib2 2026-05-08 08:43 511K
20260508T06Z_MSC_RDPS_Albedo_Sfc_RLatLon0.09_PT017H.grib2 2026-05-08 08:43 152K
20260508T06Z_MSC_RDPS_CAPE_Sfc_RLatLon0.09_PT017H.grib2 2026-05-08 08:43 1.7M
20260508T06Z_MSC_RDPS_CIN_Sfc_RLatLon0.09_PT017H.grib2 2026-05-08 08:43 1.3M
20260508T06Z_MSC_RDPS_CloudWater_EAtm_RLatLon0.09_PT017H.grib2 2026-05-08 08:43 230K
20260508T06Z_MSC_RDPS_ConvectivePrecip-Accum_Sfc_RLatLon0.09_PT017H.grib2 2026-05-08 08:43 736K
20260508T06Z_MSC_RDPS_DewPointDepression_AGL-2m_RLatLon0.09_PT017H.grib2 2026-05-08 08:43 421K
20260508T06Z_MSC_RDPS_DewPointDepression_IsbL-0001_RLatLon0.09_PT017H.grib2 2026-05-08 08:43 193
20260508T06Z_MSC_RDPS_DewPointDepression_IsbL-0005_RLatLon0.09_PT017H.grib2 2026-05-08 08:43 193
20260508T06Z_MSC_RDPS_DewPointDepression_IsbL-0010_RLatLon0.09_PT017H.grib2 2026-05-08 08:43 193
20260508T06Z_MSC_RDPS_DewPointDepression_IsbL-0020_RLatLon0.09_PT017H.grib2 2026-05-08 08:43 193
20260508T06Z_MSC_RDPS_DewPointDepression_IsbL-0030_RLatLon0.09_PT017H.grib2 2026-05-08 08:43 193
20260508T06Z_MSC_RDPS_DewPointDepression_IsbL-0050_RLatLon0.09_PT017H.grib2 2026-05-08 08:43 82K
20260508T06Z_MSC_RDPS_DewPointDepression_IsbL-0100_RLatLon0.09_PT017H.grib2 2026-05-08 08:43 111K
20260508T06Z_MSC_RDPS_DewPointDepression_IsbL-0150_RLatLon0.09_PT017H.grib2 2026-05-08 08:43 146K
20260508T06Z_MSC_RDPS_DewPointDepression_IsbL-0175_RLatLon0.09_PT017H.grib2 2026-05-08 08:43 176K
20260508T06Z_MSC_RDPS_DewPointDepression_IsbL-0200_RLatLon0.09_PT017H.grib2 2026-05-08 08:43 225K
20260508T06Z_MSC_RDPS_DewPointDepression_IsbL-0225_RLatLon0.09_PT017H.grib2 2026-05-08 08:43 259K
20260508T06Z_MSC_RDPS_DewPointDepression_IsbL-0250_RLatLon0.09_PT017H.grib2 2026-05-08 08:43 301K
20260508T06Z_MSC_RDPS_DewPointDepression_IsbL-0275_RLatLon0.09_PT017H.grib2 2026-05-08 08:43 309K
20260508T06Z_MSC_RDPS_DewPointDepression_IsbL-0300_RLatLon0.09_PT017H.grib2 2026-05-08 08:43 321K
20260508T06Z_MSC_RDPS_DewPointDepression_IsbL-0350_RLatLon0.09_PT017H.grib2 2026-05-08 08:43 324K
20260508T06Z_MSC_RDPS_DewPointDepression_IsbL-0400_RLatLon0.09_PT017H.grib2 2026-05-08 08:43 329K
20260508T06Z_MSC_RDPS_DewPointDepression_IsbL-0450_RLatLon0.09_PT017H.grib2 2026-05-08 08:43 333K
20260508T06Z_MSC_RDPS_DewPointDepression_IsbL-0500_RLatLon0.09_PT017H.grib2 2026-05-08 08:43 341K
20260508T06Z_MSC_RDPS_DewPointDepression_IsbL-0550_RLatLon0.09_PT017H.grib2 2026-05-08 08:43 356K
20260508T06Z_MSC_RDPS_DewPointDepression_IsbL-0600_RLatLon0.09_PT017H.grib2 2026-05-08 08:43 377K
20260508T06Z_MSC_RDPS_DewPointDepression_IsbL-0650_RLatLon0.09_PT017H.grib2 2026-05-08 08:43 388K
20260508T06Z_MSC_RDPS_DewPointDepression_IsbL-0700_RLatLon0.09_PT017H.grib2 2026-05-08 08:43 403K
20260508T06Z_MSC_RDPS_DewPointDepression_IsbL-0750_RLatLon0.09_PT017H.grib2 2026-05-08 08:43 423K
20260508T06Z_MSC_RDPS_DewPointDepression_IsbL-0800_RLatLon0.09_PT017H.grib2 2026-05-08 08:43 461K
20260508T06Z_MSC_RDPS_DewPointDepression_IsbL-0850_RLatLon0.09_PT017H.grib2 2026-05-08 08:43 482K
20260508T06Z_MSC_RDPS_DewPointDepression_IsbL-0875_RLatLon0.09_PT017H.grib2 2026-05-08 08:43 478K
20260508T06Z_MSC_RDPS_DewPointDepression_IsbL-0900_RLatLon0.09_PT017H.grib2 2026-05-08 08:43 468K
20260508T06Z_MSC_RDPS_DewPointDepression_IsbL-0925_RLatLon0.09_PT017H.grib2 2026-05-08 08:43 456K
20260508T06Z_MSC_RDPS_DewPointDepression_IsbL-0950_RLatLon0.09_PT017H.grib2 2026-05-08 08:43 445K
20260508T06Z_MSC_RDPS_DewPointDepression_IsbL-0970_RLatLon0.09_PT017H.grib2 2026-05-08 08:43 437K
20260508T06Z_MSC_RDPS_DewPointDepression_IsbL-0985_RLatLon0.09_PT017H.grib2 2026-05-08 08:43 429K
20260508T06Z_MSC_RDPS_DewPointDepression_IsbL-1000_RLatLon0.09_PT017H.grib2 2026-05-08 08:43 426K
20260508T06Z_MSC_RDPS_DewPointDepression_IsbL-1015_RLatLon0.09_PT017H.grib2 2026-05-08 08:43 416K
20260508T06Z_MSC_RDPS_DewPoint_AGL-2m_RLatLon0.09_PT017H.grib2 2026-05-08 08:43 400K
20260508T06Z_MSC_RDPS_DownwardLongwaveRadiationFlux-Accum_Sfc_RLatLon0.09_PT017H.grib2 2026-05-08 08:43 528K
20260508T06Z_MSC_RDPS_DownwardShortwaveRadiationFlux-Accum_NTAtm_RLatLon0.09_PT017H.grib2 2026-05-08 08:43 115K
20260508T06Z_MSC_RDPS_DownwardShortwaveRadiationFlux-Accum_Sfc_RLatLon0.09_PT017H.grib2 2026-05-08 08:43 616K
20260508T06Z_MSC_RDPS_FreezingRain-Accum1h_Sfc_RLatLon0.09_PT017H.grib2 2026-05-08 08:43 27K
20260508T06Z_MSC_RDPS_FreezingRain-Accum_Sfc_RLatLon0.09_PT017H.grib2 2026-05-08 08:43 110K
20260508T06Z_MSC_RDPS_GeopotentialHeight_IsbL-0001_RLatLon0.09_PT017H.grib2 2026-05-08 08:43 315K
20260508T06Z_MSC_RDPS_GeopotentialHeight_IsbL-0005_RLatLon0.09_PT017H.grib2 2026-05-08 08:43 305K
20260508T06Z_MSC_RDPS_GeopotentialHeight_IsbL-0010_RLatLon0.09_PT017H.grib2 2026-05-08 08:43 306K
20260508T06Z_MSC_RDPS_GeopotentialHeight_IsbL-0020_RLatLon0.09_PT017H.grib2 2026-05-08 08:43 305K
20260508T06Z_MSC_RDPS_GeopotentialHeight_IsbL-0030_RLatLon0.09_PT017H.grib2 2026-05-08 08:43 308K
20260508T06Z_MSC_RDPS_GeopotentialHeight_IsbL-0050_RLatLon0.09_PT017H.grib2 2026-05-08 08:43 310K
20260508T06Z_MSC_RDPS_GeopotentialHeight_IsbL-0100_RLatLon0.09_PT017H.grib2 2026-05-08 08:43 285K
20260508T06Z_MSC_RDPS_GeopotentialHeight_IsbL-0150_RLatLon0.09_PT017H.grib2 2026-05-08 08:43 227K
20260508T06Z_MSC_RDPS_GeopotentialHeight_IsbL-0175_RLatLon0.09_PT017H.grib2 2026-05-08 08:43 230K
20260508T06Z_MSC_RDPS_GeopotentialHeight_IsbL-0200_RLatLon0.09_PT017H.grib2 2026-05-08 08:43 264K
20260508T06Z_MSC_RDPS_GeopotentialHeight_IsbL-0225_RLatLon0.09_PT017H.grib2 2026-05-08 08:43 265K
20260508T06Z_MSC_RDPS_GeopotentialHeight_IsbL-0250_RLatLon0.09_PT017H.grib2 2026-05-08 08:43 267K
20260508T06Z_MSC_RDPS_GeopotentialHeight_IsbL-0275_RLatLon0.09_PT017H.grib2 2026-05-08 08:43 266K
20260508T06Z_MSC_RDPS_GeopotentialHeight_IsbL-0300_RLatLon0.09_PT017H.grib2 2026-05-08 08:43 235K
20260508T06Z_MSC_RDPS_GeopotentialHeight_IsbL-0350_RLatLon0.09_PT017H.grib2 2026-05-08 08:43 231K
20260508T06Z_MSC_RDPS_GeopotentialHeight_IsbL-0400_RLatLon0.09_PT017H.grib2 2026-05-08 08:43 227K
20260508T06Z_MSC_RDPS_GeopotentialHeight_IsbL-0450_RLatLon0.09_PT017H.grib2 2026-05-08 08:43 295K
20260508T06Z_MSC_RDPS_GeopotentialHeight_IsbL-0500_RLatLon0.09_PT017H.grib2 2026-05-08 08:43 290K
20260508T06Z_MSC_RDPS_GeopotentialHeight_IsbL-0550_RLatLon0.09_PT017H.grib2 2026-05-08 08:43 287K
20260508T06Z_MSC_RDPS_GeopotentialHeight_IsbL-0600_RLatLon0.09_PT017H.grib2 2026-05-08 08:43 286K
20260508T06Z_MSC_RDPS_GeopotentialHeight_IsbL-0650_RLatLon0.09_PT017H.grib2 2026-05-08 08:43 257K
20260508T06Z_MSC_RDPS_GeopotentialHeight_IsbL-0700_RLatLon0.09_PT017H.grib2 2026-05-08 08:43 257K
20260508T06Z_MSC_RDPS_GeopotentialHeight_IsbL-0750_RLatLon0.09_PT017H.grib2 2026-05-08 08:43 259K
20260508T06Z_MSC_RDPS_GeopotentialHeight_IsbL-0800_RLatLon0.09_PT017H.grib2 2026-05-08 08:43 348K
20260508T06Z_MSC_RDPS_GeopotentialHeight_IsbL-0850_RLatLon0.09_PT017H.grib2 2026-05-08 08:43 354K
20260508T06Z_MSC_RDPS_GeopotentialHeight_IsbL-0875_RLatLon0.09_PT017H.grib2 2026-05-08 08:43 356K
20260508T06Z_MSC_RDPS_GeopotentialHeight_IsbL-0900_RLatLon0.09_PT017H.grib2 2026-05-08 08:43 360K
20260508T06Z_MSC_RDPS_GeopotentialHeight_IsbL-0925_RLatLon0.09_PT017H.grib2 2026-05-08 08:43 365K
20260508T06Z_MSC_RDPS_GeopotentialHeight_IsbL-0950_RLatLon0.09_PT017H.grib2 2026-05-08 08:43 366K
20260508T06Z_MSC_RDPS_GeopotentialHeight_IsbL-0970_RLatLon0.09_PT017H.grib2 2026-05-08 08:43 374K
20260508T06Z_MSC_RDPS_GeopotentialHeight_IsbL-0985_RLatLon0.09_PT017H.grib2 2026-05-08 08:43 383K
20260508T06Z_MSC_RDPS_GeopotentialHeight_IsbL-1000_RLatLon0.09_PT017H.grib2 2026-05-08 08:43 394K
20260508T06Z_MSC_RDPS_GeopotentialHeight_IsbL-1015_RLatLon0.09_PT017H.grib2 2026-05-08 08:43 410K
20260508T06Z_MSC_RDPS_HighLowPressure_MSL_RLatLon0.09_PT017H.json 2026-05-08 08:36 20K
20260508T06Z_MSC_RDPS_Humidex_Sfc_RLatLon0.09_PT017H.grib2 2026-05-08 08:43 2.4M
20260508T06Z_MSC_RDPS_IcePellets-Accum1h_Sfc_RLatLon0.09_PT017H.grib2 2026-05-08 08:43 7.6K
20260508T06Z_MSC_RDPS_IcePellets-Accum_Sfc_RLatLon0.09_PT017H.grib2 2026-05-08 08:43 13K
20260508T06Z_MSC_RDPS_KIndex_Sfc_RLatLon0.09_PT017H.grib2 2026-05-08 08:43 2.5M
20260508T06Z_MSC_RDPS_LatentHeatNetFlux_Sfc_RLatLon0.09_PT017H.grib2 2026-05-08 08:43 383K
20260508T06Z_MSC_RDPS_LiftedIndex-MU-VT_IsbL-0500_RLatLon0.09_PT017H.grib2 2026-05-08 08:43 2.4M
20260508T06Z_MSC_RDPS_NetLongwaveRadiationFlux-Accum_Sfc_RLatLon0.09_PT017H.grib2 2026-05-08 08:43 539K
20260508T06Z_MSC_RDPS_NetShortwaveRadiationFlux-Accum_Sfc_RLatLon0.09_PT017H.grib2 2026-05-08 08:43 612K
20260508T06Z_MSC_RDPS_PlanetaryBoundaryLayerHeight_Sfc_RLatLon0.09_PT017H.grib2 2026-05-08 08:43 1.0M
20260508T06Z_MSC_RDPS_Precip-Accum1h_Sfc_RLatLon0.09_PT017H.grib2 2026-05-08 08:43 1.2M
20260508T06Z_MSC_RDPS_Precip-Accum_Sfc_RLatLon0.09_PT017H.grib2 2026-05-08 08:43 1.7M
20260508T06Z_MSC_RDPS_PrecipRate_Sfc_RLatLon0.09_PT017H.grib2 2026-05-08 08:43 177K
20260508T06Z_MSC_RDPS_PrecipType-Instant_Sfc_RLatLon0.09_PT017H.grib2 2026-05-08 08:43 588K
20260508T06Z_MSC_RDPS_Pressure-Trend3h_Sfc_RLatLon0.09_PT017H.grib2 2026-05-08 08:43 1.2M
20260508T06Z_MSC_RDPS_Pressure_MSL_RLatLon0.09_PT017H.grib2 2026-05-08 08:43 328K
20260508T06Z_MSC_RDPS_Pressure_PVU-1.5_RLatLon0.09_PT017H.grib2 2026-05-08 08:43 2.5M
20260508T06Z_MSC_RDPS_Pressure_PVU-1_RLatLon0.09_PT017H.grib2 2026-05-08 08:43 2.4M
20260508T06Z_MSC_RDPS_Pressure_PVU-2_RLatLon0.09_PT017H.grib2 2026-05-08 08:43 2.4M
20260508T06Z_MSC_RDPS_Pressure_Sfc_RLatLon0.09_PT017H.grib2 2026-05-08 08:43 498K
20260508T06Z_MSC_RDPS_RadiativeTemp_Sfc_RLatLon0.09_PT017H.grib2 2026-05-08 08:43 321K
20260508T06Z_MSC_RDPS_Rain-Accum1h_Sfc_RLatLon0.09_PT017H.grib2 2026-05-08 08:43 562K
20260508T06Z_MSC_RDPS_Rain-Accum_Sfc_RLatLon0.09_PT017H.grib2 2026-05-08 08:43 1.3M
20260508T06Z_MSC_RDPS_RelativeHumidity_AGL-2m_RLatLon0.09_PT017H.grib2 2026-05-08 08:43 1.0M
20260508T06Z_MSC_RDPS_RelativeHumidity_IsbL-0010_RLatLon0.09_PT017H.grib2 2026-05-08 08:43 580K
20260508T06Z_MSC_RDPS_RelativeHumidity_IsbL-0020_RLatLon0.09_PT017H.grib2 2026-05-08 08:43 649K
20260508T06Z_MSC_RDPS_RelativeHumidity_IsbL-0030_RLatLon0.09_PT017H.grib2 2026-05-08 08:43 630K
20260508T06Z_MSC_RDPS_RelativeHumidity_IsbL-0050_RLatLon0.09_PT017H.grib2 2026-05-08 08:43 363K
20260508T06Z_MSC_RDPS_RelativeHumidity_IsbL-0100_RLatLon0.09_PT017H.grib2 2026-05-08 08:43 278K
20260508T06Z_MSC_RDPS_RelativeHumidity_IsbL-0150_RLatLon0.09_PT017H.grib2 2026-05-08 08:43 416K
20260508T06Z_MSC_RDPS_RelativeHumidity_IsbL-0175_RLatLon0.09_PT017H.grib2 2026-05-08 08:43 476K
20260508T06Z_MSC_RDPS_RelativeHumidity_IsbL-0200_RLatLon0.09_PT017H.grib2 2026-05-08 08:43 552K
20260508T06Z_MSC_RDPS_RelativeHumidity_IsbL-0225_RLatLon0.09_PT017H.grib2 2026-05-08 08:43 616K
20260508T06Z_MSC_RDPS_RelativeHumidity_IsbL-0250_RLatLon0.09_PT017H.grib2 2026-05-08 08:43 681K
20260508T06Z_MSC_RDPS_RelativeHumidity_IsbL-0275_RLatLon0.09_PT017H.grib2 2026-05-08 08:43 707K
20260508T06Z_MSC_RDPS_RelativeHumidity_IsbL-0300_RLatLon0.09_PT017H.grib2 2026-05-08 08:43 744K
20260508T06Z_MSC_RDPS_RelativeHumidity_IsbL-0350_RLatLon0.09_PT017H.grib2 2026-05-08 08:43 759K
20260508T06Z_MSC_RDPS_RelativeHumidity_IsbL-0400_RLatLon0.09_PT017H.grib2 2026-05-08 08:43 774K
20260508T06Z_MSC_RDPS_RelativeHumidity_IsbL-0450_RLatLon0.09_PT017H.grib2 2026-05-08 08:43 782K
20260508T06Z_MSC_RDPS_RelativeHumidity_IsbL-0500_RLatLon0.09_PT017H.grib2 2026-05-08 08:43 792K
20260508T06Z_MSC_RDPS_RelativeHumidity_IsbL-0550_RLatLon0.09_PT017H.grib2 2026-05-08 08:43 813K
20260508T06Z_MSC_RDPS_RelativeHumidity_IsbL-0600_RLatLon0.09_PT017H.grib2 2026-05-08 08:43 843K
20260508T06Z_MSC_RDPS_RelativeHumidity_IsbL-0650_RLatLon0.09_PT017H.grib2 2026-05-08 08:43 862K
20260508T06Z_MSC_RDPS_RelativeHumidity_IsbL-0700_RLatLon0.09_PT017H.grib2 2026-05-08 08:43 904K
20260508T06Z_MSC_RDPS_RelativeHumidity_IsbL-0750_RLatLon0.09_PT017H.grib2 2026-05-08 08:43 950K
20260508T06Z_MSC_RDPS_RelativeHumidity_IsbL-0800_RLatLon0.09_PT017H.grib2 2026-05-08 08:43 1.0M
20260508T06Z_MSC_RDPS_RelativeHumidity_IsbL-0850_RLatLon0.09_PT017H.grib2 2026-05-08 08:43 1.0M
20260508T06Z_MSC_RDPS_RelativeHumidity_IsbL-0875_RLatLon0.09_PT017H.grib2 2026-05-08 08:43 1.1M
20260508T06Z_MSC_RDPS_RelativeHumidity_IsbL-0900_RLatLon0.09_PT017H.grib2 2026-05-08 08:43 1.1M
20260508T06Z_MSC_RDPS_RelativeHumidity_IsbL-0925_RLatLon0.09_PT017H.grib2 2026-05-08 08:43 1.1M
20260508T06Z_MSC_RDPS_RelativeHumidity_IsbL-0950_RLatLon0.09_PT017H.grib2 2026-05-08 08:43 1.1M
20260508T06Z_MSC_RDPS_RelativeHumidity_IsbL-0970_RLatLon0.09_PT017H.grib2 2026-05-08 08:43 1.0M
20260508T06Z_MSC_RDPS_RelativeHumidity_IsbL-0985_RLatLon0.09_PT017H.grib2 2026-05-08 08:43 1.0M
20260508T06Z_MSC_RDPS_RelativeHumidity_IsbL-1000_RLatLon0.09_PT017H.grib2 2026-05-08 08:43 1.0M
20260508T06Z_MSC_RDPS_RelativeHumidity_IsbL-1015_RLatLon0.09_PT017H.grib2 2026-05-08 08:43 1.0M
20260508T06Z_MSC_RDPS_Runoff-Accum_Sfc_RLatLon0.09_PT017H.grib2 2026-05-08 08:43 37K
20260508T06Z_MSC_RDPS_SWEATIndex_Sfc_RLatLon0.09_PT017H.grib2 2026-05-08 08:43 2.4M
20260508T06Z_MSC_RDPS_SeeingIndex_EAtm_RLatLon0.09_PT017H.grib2 2026-05-08 08:43 1.0M
20260508T06Z_MSC_RDPS_SensibleHeatNetFlux_Sfc_RLatLon0.09_PT017H.grib2 2026-05-08 08:43 254K
20260508T06Z_MSC_RDPS_ShowalterIndex_IsbL-0500_RLatLon0.09_PT017H.grib2 2026-05-08 08:43 2.6M
20260508T06Z_MSC_RDPS_SkyTransparencyIndex_EAtm_RLatLon0.09_PT017H.grib2 2026-05-08 08:43 709K
20260508T06Z_MSC_RDPS_Snow-Accum1h_Sfc_RLatLon0.09_PT017H.grib2 2026-05-08 08:43 410K
20260508T06Z_MSC_RDPS_Snow-Accum_Sfc_RLatLon0.09_PT017H.grib2 2026-05-08 08:43 649K
20260508T06Z_MSC_RDPS_SnowDensity_Sfc_RLatLon0.09_PT017H.grib2 2026-05-08 08:43 167K
20260508T06Z_MSC_RDPS_SnowDepth_Sfc_RLatLon0.09_PT017H.grib2 2026-05-08 08:43 622K
20260508T06Z_MSC_RDPS_SoilTemp_DBS-0to10cm_RLatLon0.09_PT017H.grib2 2026-05-08 08:43 224K
20260508T06Z_MSC_RDPS_SoilTemp_Sfc_RLatLon0.09_PT017H.grib2 2026-05-08 08:43 281K
20260508T06Z_MSC_RDPS_SoilVolumetricIceContent_Sfc_RLatLon0.09_PT017H.grib2 2026-05-08 08:43 146K
20260508T06Z_MSC_RDPS_SoilVolumetricWaterContent_DBS-0to10cm_RLatLon0.09_PT017H.grib2 2026-05-08 08:43 285K
20260508T06Z_MSC_RDPS_SoilVolumetricWaterContent_DBS-0to1cm_RLatLon0.09_PT017H.grib2 2026-05-08 08:43 337K
20260508T06Z_MSC_RDPS_SpecificHumidity_AGL-120m_RLatLon0.09_PT017H.grib2 2026-05-08 08:43 502K
20260508T06Z_MSC_RDPS_SpecificHumidity_AGL-2m_RLatLon0.09_PT017H.grib2 2026-05-08 08:43 676K
20260508T06Z_MSC_RDPS_SpecificHumidity_AGL-40m_RLatLon0.09_PT017H.grib2 2026-05-08 08:43 508K
20260508T06Z_MSC_RDPS_SpecificHumidity_AGL-80m_RLatLon0.09_PT017H.grib2 2026-05-08 08:43 503K
20260508T06Z_MSC_RDPS_SpecificHumidity_IsbL-0001_RLatLon0.09_PT017H.grib2 2026-05-08 08:43 365K
20260508T06Z_MSC_RDPS_SpecificHumidity_IsbL-0005_RLatLon0.09_PT017H.grib2 2026-05-08 08:43 374K
20260508T06Z_MSC_RDPS_SpecificHumidity_IsbL-0010_RLatLon0.09_PT017H.grib2 2026-05-08 08:43 404K
20260508T06Z_MSC_RDPS_SpecificHumidity_IsbL-0020_RLatLon0.09_PT017H.grib2 2026-05-08 08:43 381K
20260508T06Z_MSC_RDPS_SpecificHumidity_IsbL-0030_RLatLon0.09_PT017H.grib2 2026-05-08 08:43 375K
20260508T06Z_MSC_RDPS_SpecificHumidity_IsbL-0050_RLatLon0.09_PT017H.grib2 2026-05-08 08:43 456K
20260508T06Z_MSC_RDPS_SpecificHumidity_IsbL-0100_RLatLon0.09_PT017H.grib2 2026-05-08 08:43 445K
20260508T06Z_MSC_RDPS_SpecificHumidity_IsbL-0150_RLatLon0.09_PT017H.grib2 2026-05-08 08:43 462K
20260508T06Z_MSC_RDPS_SpecificHumidity_IsbL-0175_RLatLon0.09_PT017H.grib2 2026-05-08 08:43 449K
20260508T06Z_MSC_RDPS_SpecificHumidity_IsbL-0200_RLatLon0.09_PT017H.grib2 2026-05-08 08:43 482K
20260508T06Z_MSC_RDPS_SpecificHumidity_IsbL-0225_RLatLon0.09_PT017H.grib2 2026-05-08 08:43 480K
20260508T06Z_MSC_RDPS_SpecificHumidity_IsbL-0250_RLatLon0.09_PT017H.grib2 2026-05-08 08:43 432K
20260508T06Z_MSC_RDPS_SpecificHumidity_IsbL-0275_RLatLon0.09_PT017H.grib2 2026-05-08 08:43 483K
20260508T06Z_MSC_RDPS_SpecificHumidity_IsbL-0300_RLatLon0.09_PT017H.grib2 2026-05-08 08:43 451K
20260508T06Z_MSC_RDPS_SpecificHumidity_IsbL-0350_RLatLon0.09_PT017H.grib2 2026-05-08 08:43 441K
20260508T06Z_MSC_RDPS_SpecificHumidity_IsbL-0400_RLatLon0.09_PT017H.grib2 2026-05-08 08:43 519K
20260508T06Z_MSC_RDPS_SpecificHumidity_IsbL-0450_RLatLon0.09_PT017H.grib2 2026-05-08 08:43 457K
20260508T06Z_MSC_RDPS_SpecificHumidity_IsbL-0500_RLatLon0.09_PT017H.grib2 2026-05-08 08:43 510K
20260508T06Z_MSC_RDPS_SpecificHumidity_IsbL-0550_RLatLon0.09_PT017H.grib2 2026-05-08 08:43 584K
20260508T06Z_MSC_RDPS_SpecificHumidity_IsbL-0600_RLatLon0.09_PT017H.grib2 2026-05-08 08:43 643K
20260508T06Z_MSC_RDPS_SpecificHumidity_IsbL-0650_RLatLon0.09_PT017H.grib2 2026-05-08 08:43 567K
20260508T06Z_MSC_RDPS_SpecificHumidity_IsbL-0700_RLatLon0.09_PT017H.grib2 2026-05-08 08:43 620K
20260508T06Z_MSC_RDPS_SpecificHumidity_IsbL-0750_RLatLon0.09_PT017H.grib2 2026-05-08 08:43 681K
20260508T06Z_MSC_RDPS_SpecificHumidity_IsbL-0800_RLatLon0.09_PT017H.grib2 2026-05-08 08:43 769K
20260508T06Z_MSC_RDPS_SpecificHumidity_IsbL-0850_RLatLon0.09_PT017H.grib2 2026-05-08 08:43 833K
20260508T06Z_MSC_RDPS_SpecificHumidity_IsbL-0875_RLatLon0.09_PT017H.grib2 2026-05-08 08:43 713K
20260508T06Z_MSC_RDPS_SpecificHumidity_IsbL-0900_RLatLon0.09_PT017H.grib2 2026-05-08 08:43 724K
20260508T06Z_MSC_RDPS_SpecificHumidity_IsbL-0925_RLatLon0.09_PT017H.grib2 2026-05-08 08:43 727K
20260508T06Z_MSC_RDPS_SpecificHumidity_IsbL-0950_RLatLon0.09_PT017H.grib2 2026-05-08 08:43 725K
20260508T06Z_MSC_RDPS_SpecificHumidity_IsbL-0970_RLatLon0.09_PT017H.grib2 2026-05-08 08:43 717K
20260508T06Z_MSC_RDPS_SpecificHumidity_IsbL-0985_RLatLon0.09_PT017H.grib2 2026-05-08 08:43 707K
20260508T06Z_MSC_RDPS_SpecificHumidity_IsbL-1000_RLatLon0.09_PT017H.grib2 2026-05-08 08:43 700K
20260508T06Z_MSC_RDPS_SpecificHumidity_IsbL-1015_RLatLon0.09_PT017H.grib2 2026-05-08 08:43 689K
20260508T06Z_MSC_RDPS_SpecificHumidity_Sfc_RLatLon0.09_PT017H.grib2 2026-05-08 08:43 349K
20260508T06Z_MSC_RDPS_StormRelativeHelicity_EtaL-10000_RLatLon0.09_PT017H.grib2 2026-05-08 08:43 1.1M
20260508T06Z_MSC_RDPS_StormSeverityIndex_EtaL-10000_RLatLon0.09_PT017H.grib2 2026-05-08 08:43 1.1M
20260508T06Z_MSC_RDPS_Thickness_IsbL-0850to0700_RLatLon0.09_PT017H.grib2 2026-05-08 08:43 177K
20260508T06Z_MSC_RDPS_Thickness_IsbL-1000to0500_RLatLon0.09_PT017H.grib2 2026-05-08 08:43 197K
20260508T06Z_MSC_RDPS_Thickness_IsbL-1000to0850_RLatLon0.09_PT017H.grib2 2026-05-08 08:43 262K
20260508T06Z_MSC_RDPS_TotalCloudCover_Sfc_RLatLon0.09_PT017H.grib2 2026-05-08 08:43 657K
20260508T06Z_MSC_RDPS_TotalTotalsIndex_Sfc_RLatLon0.09_PT017H.grib2 2026-05-08 08:43 2.4M
20260508T06Z_MSC_RDPS_UVIndex-ClearSky_Sfc_RLatLon0.09_PT017H.grib2 2026-05-08 08:43 207K
20260508T06Z_MSC_RDPS_UVIndex_Sfc_RLatLon0.09_PT017H.grib2 2026-05-08 08:43 453K
20260508T06Z_MSC_RDPS_UpwardLongwaveRadiationFlux_NTAtm_RLatLon0.09_PT017H.grib2 2026-05-08 08:43 383K
20260508T06Z_MSC_RDPS_UpwardShortwaveRadiationFlux_NTAtm_RLatLon0.09_PT017H.grib2 2026-05-08 08:43 402K
20260508T06Z_MSC_RDPS_VerticalVelocity_IsbL-0250_RLatLon0.09_PT017H.grib2 2026-05-08 08:43 576K
20260508T06Z_MSC_RDPS_VerticalVelocity_IsbL-0500_RLatLon0.09_PT017H.grib2 2026-05-08 08:43 532K
20260508T06Z_MSC_RDPS_VerticalVelocity_IsbL-0700_RLatLon0.09_PT017H.grib2 2026-05-08 08:43 605K
20260508T06Z_MSC_RDPS_VerticalVelocity_IsbL-0850_RLatLon0.09_PT017H.grib2 2026-05-08 08:43 707K
20260508T06Z_MSC_RDPS_VerticalWindShear_EtaL-6500_RLatLon0.09_PT017H.grib2 2026-05-08 08:43 1.2M
20260508T06Z_MSC_RDPS_WindChill_Sfc_RLatLon0.09_PT017H.grib2 2026-05-08 08:43 1.2M
20260508T06Z_MSC_RDPS_WindDir_AGL-10m_RLatLon0.09_PT017H.grib2 2026-05-08 08:43 954K
20260508T06Z_MSC_RDPS_WindDir_AGL-120m_RLatLon0.09_PT017H.grib2 2026-05-08 08:43 599K
20260508T06Z_MSC_RDPS_WindDir_AGL-40m_RLatLon0.09_PT017H.grib2 2026-05-08 08:43 622K
20260508T06Z_MSC_RDPS_WindDir_AGL-80m_RLatLon0.09_PT017H.grib2 2026-05-08 08:43 608K
20260508T06Z_MSC_RDPS_WindDir_IsbL-0001_RLatLon0.09_PT017H.grib2 2026-05-08 08:43 283K
20260508T06Z_MSC_RDPS_WindDir_IsbL-0005_RLatLon0.09_PT017H.grib2 2026-05-08 08:43 363K
20260508T06Z_MSC_RDPS_WindDir_IsbL-0010_RLatLon0.09_PT017H.grib2 2026-05-08 08:43 374K
20260508T06Z_MSC_RDPS_WindDir_IsbL-0020_RLatLon0.09_PT017H.grib2 2026-05-08 08:43 425K
20260508T06Z_MSC_RDPS_WindDir_IsbL-0030_RLatLon0.09_PT017H.grib2 2026-05-08 08:43 412K
20260508T06Z_MSC_RDPS_WindDir_IsbL-0050_RLatLon0.09_PT017H.grib2 2026-05-08 08:43 441K
20260508T06Z_MSC_RDPS_WindDir_IsbL-0100_RLatLon0.09_PT017H.grib2 2026-05-08 08:43 406K
20260508T06Z_MSC_RDPS_WindDir_IsbL-0150_RLatLon0.09_PT017H.grib2 2026-05-08 08:43 432K
20260508T06Z_MSC_RDPS_WindDir_IsbL-0175_RLatLon0.09_PT017H.grib2 2026-05-08 08:43 454K
20260508T06Z_MSC_RDPS_WindDir_IsbL-0200_RLatLon0.09_PT017H.grib2 2026-05-08 08:43 466K
20260508T06Z_MSC_RDPS_WindDir_IsbL-0225_RLatLon0.09_PT017H.grib2 2026-05-08 08:43 468K
20260508T06Z_MSC_RDPS_WindDir_IsbL-0250_RLatLon0.09_PT017H.grib2 2026-05-08 08:43 465K
20260508T06Z_MSC_RDPS_WindDir_IsbL-0275_RLatLon0.09_PT017H.grib2 2026-05-08 08:43 482K
20260508T06Z_MSC_RDPS_WindDir_IsbL-0300_RLatLon0.09_PT017H.grib2 2026-05-08 08:43 480K
20260508T06Z_MSC_RDPS_WindDir_IsbL-0350_RLatLon0.09_PT017H.grib2 2026-05-08 08:43 500K
20260508T06Z_MSC_RDPS_WindDir_IsbL-0400_RLatLon0.09_PT017H.grib2 2026-05-08 08:43 520K
20260508T06Z_MSC_RDPS_WindDir_IsbL-0450_RLatLon0.09_PT017H.grib2 2026-05-08 08:43 540K
20260508T06Z_MSC_RDPS_WindDir_IsbL-0500_RLatLon0.09_PT017H.grib2 2026-05-08 08:43 565K
20260508T06Z_MSC_RDPS_WindDir_IsbL-0550_RLatLon0.09_PT017H.grib2 2026-05-08 08:43 577K
20260508T06Z_MSC_RDPS_WindDir_IsbL-0600_RLatLon0.09_PT017H.grib2 2026-05-08 08:43 601K
20260508T06Z_MSC_RDPS_WindDir_IsbL-0650_RLatLon0.09_PT017H.grib2 2026-05-08 08:43 634K
20260508T06Z_MSC_RDPS_WindDir_IsbL-0700_RLatLon0.09_PT017H.grib2 2026-05-08 08:43 682K
20260508T06Z_MSC_RDPS_WindDir_IsbL-0750_RLatLon0.09_PT017H.grib2 2026-05-08 08:43 735K
20260508T06Z_MSC_RDPS_WindDir_IsbL-0800_RLatLon0.09_PT017H.grib2 2026-05-08 08:43 797K
20260508T06Z_MSC_RDPS_WindDir_IsbL-0850_RLatLon0.09_PT017H.grib2 2026-05-08 08:43 854K
20260508T06Z_MSC_RDPS_WindDir_IsbL-0875_RLatLon0.09_PT017H.grib2 2026-05-08 08:43 876K
20260508T06Z_MSC_RDPS_WindDir_IsbL-0900_RLatLon0.09_PT017H.grib2 2026-05-08 08:43 891K
20260508T06Z_MSC_RDPS_WindDir_IsbL-0925_RLatLon0.09_PT017H.grib2 2026-05-08 08:43 903K
20260508T06Z_MSC_RDPS_WindDir_IsbL-0950_RLatLon0.09_PT017H.grib2 2026-05-08 08:43 906K
20260508T06Z_MSC_RDPS_WindDir_IsbL-0970_RLatLon0.09_PT017H.grib2 2026-05-08 08:43 909K
20260508T06Z_MSC_RDPS_WindDir_IsbL-0985_RLatLon0.09_PT017H.grib2 2026-05-08 08:43 917K
20260508T06Z_MSC_RDPS_WindDir_IsbL-1000_RLatLon0.09_PT017H.grib2 2026-05-08 08:43 931K
20260508T06Z_MSC_RDPS_WindDir_IsbL-1015_RLatLon0.09_PT017H.grib2 2026-05-08 08:43 947K
20260508T06Z_MSC_RDPS_WindGust-Max_AGL-10m_RLatLon0.09_PT017H.grib2 2026-05-08 08:43 953K
20260508T06Z_MSC_RDPS_WindGust-Min_AGL-10m_RLatLon0.09_PT017H.grib2 2026-05-08 08:43 1.0M
20260508T06Z_MSC_RDPS_WindGust_AGL-10m_RLatLon0.09_PT017H.grib2 2026-05-08 08:43 1.0M
20260508T06Z_MSC_RDPS_WindSpeed_AGL-10m_RLatLon0.09_PT017H.grib2 2026-05-08 08:43 840K
20260508T06Z_MSC_RDPS_WindSpeed_AGL-120m_RLatLon0.09_PT017H.grib2 2026-05-08 08:43 545K
20260508T06Z_MSC_RDPS_WindSpeed_AGL-40m_RLatLon0.09_PT017H.grib2 2026-05-08 08:43 541K
20260508T06Z_MSC_RDPS_WindSpeed_AGL-80m_RLatLon0.09_PT017H.grib2 2026-05-08 08:43 547K
20260508T06Z_MSC_RDPS_WindSpeed_IsbL-0001_RLatLon0.09_PT017H.grib2 2026-05-08 08:43 248K
20260508T06Z_MSC_RDPS_WindSpeed_IsbL-0005_RLatLon0.09_PT017H.grib2 2026-05-08 08:43 291K
20260508T06Z_MSC_RDPS_WindSpeed_IsbL-0010_RLatLon0.09_PT017H.grib2 2026-05-08 08:43 394K
20260508T06Z_MSC_RDPS_WindSpeed_IsbL-0020_RLatLon0.09_PT017H.grib2 2026-05-08 08:43 320K
20260508T06Z_MSC_RDPS_WindSpeed_IsbL-0030_RLatLon0.09_PT017H.grib2 2026-05-08 08:43 415K
20260508T06Z_MSC_RDPS_WindSpeed_IsbL-0050_RLatLon0.09_PT017H.grib2 2026-05-08 08:43 346K
20260508T06Z_MSC_RDPS_WindSpeed_IsbL-0100_RLatLon0.09_PT017H.grib2 2026-05-08 08:43 433K
20260508T06Z_MSC_RDPS_WindSpeed_IsbL-0150_RLatLon0.09_PT017H.grib2 2026-05-08 08:43 401K
20260508T06Z_MSC_RDPS_WindSpeed_IsbL-0175_RLatLon0.09_PT017H.grib2 2026-05-08 08:43 424K
20260508T06Z_MSC_RDPS_WindSpeed_IsbL-0200_RLatLon0.09_PT017H.grib2 2026-05-08 08:43 441K
20260508T06Z_MSC_RDPS_WindSpeed_IsbL-0225_RLatLon0.09_PT017H.grib2 2026-05-08 08:43 447K
20260508T06Z_MSC_RDPS_WindSpeed_IsbL-0250_RLatLon0.09_PT017H.grib2 2026-05-08 08:43 449K
20260508T06Z_MSC_RDPS_WindSpeed_IsbL-0275_RLatLon0.09_PT017H.grib2 2026-05-08 08:43 465K
20260508T06Z_MSC_RDPS_WindSpeed_IsbL-0300_RLatLon0.09_PT017H.grib2 2026-05-08 08:43 461K
20260508T06Z_MSC_RDPS_WindSpeed_IsbL-0350_RLatLon0.09_PT017H.grib2 2026-05-08 08:43 471K
20260508T06Z_MSC_RDPS_WindSpeed_IsbL-0400_RLatLon0.09_PT017H.grib2 2026-05-08 08:43 474K
20260508T06Z_MSC_RDPS_WindSpeed_IsbL-0450_RLatLon0.09_PT017H.grib2 2026-05-08 08:43 457K
20260508T06Z_MSC_RDPS_WindSpeed_IsbL-0500_RLatLon0.09_PT017H.grib2 2026-05-08 08:43 461K
20260508T06Z_MSC_RDPS_WindSpeed_IsbL-0550_RLatLon0.09_PT017H.grib2 2026-05-08 08:43 583K
20260508T06Z_MSC_RDPS_WindSpeed_IsbL-0600_RLatLon0.09_PT017H.grib2 2026-05-08 08:43 640K
20260508T06Z_MSC_RDPS_WindSpeed_IsbL-0650_RLatLon0.09_PT017H.grib2 2026-05-08 08:43 663K
20260508T06Z_MSC_RDPS_WindSpeed_IsbL-0700_RLatLon0.09_PT017H.grib2 2026-05-08 08:43 692K
20260508T06Z_MSC_RDPS_WindSpeed_IsbL-0750_RLatLon0.09_PT017H.grib2 2026-05-08 08:43 723K
20260508T06Z_MSC_RDPS_WindSpeed_IsbL-0800_RLatLon0.09_PT017H.grib2 2026-05-08 08:43 770K
20260508T06Z_MSC_RDPS_WindSpeed_IsbL-0850_RLatLon0.09_PT017H.grib2 2026-05-08 08:43 820K
20260508T06Z_MSC_RDPS_WindSpeed_IsbL-0875_RLatLon0.09_PT017H.grib2 2026-05-08 08:43 838K
20260508T06Z_MSC_RDPS_WindSpeed_IsbL-0900_RLatLon0.09_PT017H.grib2 2026-05-08 08:43 807K
20260508T06Z_MSC_RDPS_WindSpeed_IsbL-0925_RLatLon0.09_PT017H.grib2 2026-05-08 08:43 865K
20260508T06Z_MSC_RDPS_WindSpeed_IsbL-0950_RLatLon0.09_PT017H.grib2 2026-05-08 08:43 866K
20260508T06Z_MSC_RDPS_WindSpeed_IsbL-0970_RLatLon0.09_PT017H.grib2 2026-05-08 08:43 864K
20260508T06Z_MSC_RDPS_WindSpeed_IsbL-0985_RLatLon0.09_PT017H.grib2 2026-05-08 08:43 856K
20260508T06Z_MSC_RDPS_WindSpeed_IsbL-1000_RLatLon0.09_PT017H.grib2 2026-05-08 08:43 851K
20260508T06Z_MSC_RDPS_WindSpeed_IsbL-1015_RLatLon0.09_PT017H.grib2 2026-05-08 08:43 842K
20260508T06Z_MSC_RDPS_WindU_AGL-10m_RLatLon0.09_PT017H.grib2 2026-05-08 08:43 434K
20260508T06Z_MSC_RDPS_WindU_AGL-120m_RLatLon0.09_PT017H.grib2 2026-05-08 08:43 417K
20260508T06Z_MSC_RDPS_WindU_AGL-40m_RLatLon0.09_PT017H.grib2 2026-05-08 08:43 421K
20260508T06Z_MSC_RDPS_WindU_AGL-80m_RLatLon0.09_PT017H.grib2 2026-05-08 08:43 418K
20260508T06Z_MSC_RDPS_WindU_IsbL-0001_RLatLon0.09_PT017H.grib2 2026-05-08 08:43 240K
20260508T06Z_MSC_RDPS_WindU_IsbL-0005_RLatLon0.09_PT017H.grib2 2026-05-08 08:43 285K
20260508T06Z_MSC_RDPS_WindU_IsbL-0010_RLatLon0.09_PT017H.grib2 2026-05-08 08:43 295K
20260508T06Z_MSC_RDPS_WindU_IsbL-0020_RLatLon0.09_PT017H.grib2 2026-05-08 08:43 311K
20260508T06Z_MSC_RDPS_WindU_IsbL-0030_RLatLon0.09_PT017H.grib2 2026-05-08 08:43 310K
20260508T06Z_MSC_RDPS_WindU_IsbL-0050_RLatLon0.09_PT017H.grib2 2026-05-08 08:43 340K
20260508T06Z_MSC_RDPS_WindU_IsbL-0100_RLatLon0.09_PT017H.grib2 2026-05-08 08:43 331K
20260508T06Z_MSC_RDPS_WindU_IsbL-0150_RLatLon0.09_PT017H.grib2 2026-05-08 08:43 395K
20260508T06Z_MSC_RDPS_WindU_IsbL-0175_RLatLon0.09_PT017H.grib2 2026-05-08 08:43 419K
20260508T06Z_MSC_RDPS_WindU_IsbL-0200_RLatLon0.09_PT017H.grib2 2026-05-08 08:43 435K
20260508T06Z_MSC_RDPS_WindU_IsbL-0225_RLatLon0.09_PT017H.grib2 2026-05-08 08:43 340K
20260508T06Z_MSC_RDPS_WindU_IsbL-0250_RLatLon0.09_PT017H.grib2 2026-05-08 08:43 340K
20260508T06Z_MSC_RDPS_WindU_IsbL-0275_RLatLon0.09_PT017H.grib2 2026-05-08 08:43 353K
20260508T06Z_MSC_RDPS_WindU_IsbL-0300_RLatLon0.09_PT017H.grib2 2026-05-08 08:43 348K
20260508T06Z_MSC_RDPS_WindU_IsbL-0350_RLatLon0.09_PT017H.grib2 2026-05-08 08:43 356K
20260508T06Z_MSC_RDPS_WindU_IsbL-0400_RLatLon0.09_PT017H.grib2 2026-05-08 08:43 359K
20260508T06Z_MSC_RDPS_WindU_IsbL-0450_RLatLon0.09_PT017H.grib2 2026-05-08 08:43 463K
20260508T06Z_MSC_RDPS_WindU_IsbL-0500_RLatLon0.09_PT017H.grib2 2026-05-08 08:43 468K
20260508T06Z_MSC_RDPS_WindU_IsbL-0550_RLatLon0.09_PT017H.grib2 2026-05-08 08:43 475K
20260508T06Z_MSC_RDPS_WindU_IsbL-0600_RLatLon0.09_PT017H.grib2 2026-05-08 08:43 488K
20260508T06Z_MSC_RDPS_WindU_IsbL-0650_RLatLon0.09_PT017H.grib2 2026-05-08 08:43 491K
20260508T06Z_MSC_RDPS_WindU_IsbL-0700_RLatLon0.09_PT017H.grib2 2026-05-08 08:43 516K
20260508T06Z_MSC_RDPS_WindU_IsbL-0750_RLatLon0.09_PT017H.grib2 2026-05-08 08:43 544K
20260508T06Z_MSC_RDPS_WindU_IsbL-0800_RLatLon0.09_PT017H.grib2 2026-05-08 08:43 584K
20260508T06Z_MSC_RDPS_WindU_IsbL-0850_RLatLon0.09_PT017H.grib2 2026-05-08 08:43 627K
20260508T06Z_MSC_RDPS_WindU_IsbL-0875_RLatLon0.09_PT017H.grib2 2026-05-08 08:43 642K
20260508T06Z_MSC_RDPS_WindU_IsbL-0900_RLatLon0.09_PT017H.grib2 2026-05-08 08:43 653K
20260508T06Z_MSC_RDPS_WindU_IsbL-0925_RLatLon0.09_PT017H.grib2 2026-05-08 08:43 661K
20260508T06Z_MSC_RDPS_WindU_IsbL-0950_RLatLon0.09_PT017H.grib2 2026-05-08 08:43 661K
20260508T06Z_MSC_RDPS_WindU_IsbL-0970_RLatLon0.09_PT017H.grib2 2026-05-08 08:43 657K
20260508T06Z_MSC_RDPS_WindU_IsbL-0985_RLatLon0.09_PT017H.grib2 2026-05-08 08:43 653K
20260508T06Z_MSC_RDPS_WindU_IsbL-1000_RLatLon0.09_PT017H.grib2 2026-05-08 08:43 788K
20260508T06Z_MSC_RDPS_WindU_IsbL-1015_RLatLon0.09_PT017H.grib2 2026-05-08 08:43 782K
20260508T06Z_MSC_RDPS_WindV_AGL-10m_RLatLon0.09_PT017H.grib2 2026-05-08 08:43 432K
20260508T06Z_MSC_RDPS_WindV_AGL-120m_RLatLon0.09_PT017H.grib2 2026-05-08 08:43 530K
20260508T06Z_MSC_RDPS_WindV_AGL-40m_RLatLon0.09_PT017H.grib2 2026-05-08 08:43 534K
20260508T06Z_MSC_RDPS_WindV_AGL-80m_RLatLon0.09_PT017H.grib2 2026-05-08 08:43 532K
20260508T06Z_MSC_RDPS_WindV_IsbL-0001_RLatLon0.09_PT017H.grib2 2026-05-08 08:43 290K
20260508T06Z_MSC_RDPS_WindV_IsbL-0005_RLatLon0.09_PT017H.grib2 2026-05-08 08:43 285K
20260508T06Z_MSC_RDPS_WindV_IsbL-0010_RLatLon0.09_PT017H.grib2 2026-05-08 08:43 296K
20260508T06Z_MSC_RDPS_WindV_IsbL-0020_RLatLon0.09_PT017H.grib2 2026-05-08 08:43 312K
20260508T06Z_MSC_RDPS_WindV_IsbL-0030_RLatLon0.09_PT017H.grib2 2026-05-08 08:43 312K
20260508T06Z_MSC_RDPS_WindV_IsbL-0050_RLatLon0.09_PT017H.grib2 2026-05-08 08:43 341K
20260508T06Z_MSC_RDPS_WindV_IsbL-0100_RLatLon0.09_PT017H.grib2 2026-05-08 08:43 423K
20260508T06Z_MSC_RDPS_WindV_IsbL-0150_RLatLon0.09_PT017H.grib2 2026-05-08 08:43 393K
20260508T06Z_MSC_RDPS_WindV_IsbL-0175_RLatLon0.09_PT017H.grib2 2026-05-08 08:43 416K
20260508T06Z_MSC_RDPS_WindV_IsbL-0200_RLatLon0.09_PT017H.grib2 2026-05-08 08:43 335K
20260508T06Z_MSC_RDPS_WindV_IsbL-0225_RLatLon0.09_PT017H.grib2 2026-05-08 08:43 339K
20260508T06Z_MSC_RDPS_WindV_IsbL-0250_RLatLon0.09_PT017H.grib2 2026-05-08 08:43 364K
20260508T06Z_MSC_RDPS_WindV_IsbL-0275_RLatLon0.09_PT017H.grib2 2026-05-08 08:43 376K
20260508T06Z_MSC_RDPS_WindV_IsbL-0300_RLatLon0.09_PT017H.grib2 2026-05-08 08:43 346K
20260508T06Z_MSC_RDPS_WindV_IsbL-0350_RLatLon0.09_PT017H.grib2 2026-05-08 08:43 354K
20260508T06Z_MSC_RDPS_WindV_IsbL-0400_RLatLon0.09_PT017H.grib2 2026-05-08 08:43 356K
20260508T06Z_MSC_RDPS_WindV_IsbL-0450_RLatLon0.09_PT017H.grib2 2026-05-08 08:43 357K
20260508T06Z_MSC_RDPS_WindV_IsbL-0500_RLatLon0.09_PT017H.grib2 2026-05-08 08:43 463K
20260508T06Z_MSC_RDPS_WindV_IsbL-0550_RLatLon0.09_PT017H.grib2 2026-05-08 08:43 468K
20260508T06Z_MSC_RDPS_WindV_IsbL-0600_RLatLon0.09_PT017H.grib2 2026-05-08 08:43 481K
20260508T06Z_MSC_RDPS_WindV_IsbL-0650_RLatLon0.09_PT017H.grib2 2026-05-08 08:43 499K
20260508T06Z_MSC_RDPS_WindV_IsbL-0700_RLatLon0.09_PT017H.grib2 2026-05-08 08:43 523K
20260508T06Z_MSC_RDPS_WindV_IsbL-0750_RLatLon0.09_PT017H.grib2 2026-05-08 08:43 537K
20260508T06Z_MSC_RDPS_WindV_IsbL-0800_RLatLon0.09_PT017H.grib2 2026-05-08 08:43 576K
20260508T06Z_MSC_RDPS_WindV_IsbL-0850_RLatLon0.09_PT017H.grib2 2026-05-08 08:43 621K
20260508T06Z_MSC_RDPS_WindV_IsbL-0875_RLatLon0.09_PT017H.grib2 2026-05-08 08:43 637K
20260508T06Z_MSC_RDPS_WindV_IsbL-0900_RLatLon0.09_PT017H.grib2 2026-05-08 08:43 651K
20260508T06Z_MSC_RDPS_WindV_IsbL-0925_RLatLon0.09_PT017H.grib2 2026-05-08 08:43 660K
20260508T06Z_MSC_RDPS_WindV_IsbL-0950_RLatLon0.09_PT017H.grib2 2026-05-08 08:43 658K
20260508T06Z_MSC_RDPS_WindV_IsbL-0970_RLatLon0.09_PT017H.grib2 2026-05-08 08:43 795K
20260508T06Z_MSC_RDPS_WindV_IsbL-0985_RLatLon0.09_PT017H.grib2 2026-05-08 08:43 790K
20260508T06Z_MSC_RDPS_WindV_IsbL-1000_RLatLon0.09_PT017H.grib2 2026-05-08 08:43 785K
20260508T06Z_MSC_RDPS_WindV_IsbL-1015_RLatLon0.09_PT017H.grib2 2026-05-08 08:43 825K